MST,Max TemperatureF,Mean TemperatureF,Min TemperatureF,Max Dew PointF,MeanDew PointF,Min DewpointF,Max Humidity, Mean Humidity, Min Humidity, Max Sea Level PressureIn, Mean Sea Level PressureIn, Min Sea Level PressureIn, Max VisibilityMiles, Mean VisibilityMiles, Min VisibilityMiles, Max Wind SpeedMPH, Mean Wind SpeedMPH, Max Gust SpeedMPH,PrecipitationIn, CloudCover, Events, WindDirDegrees
2012-11-1,66,47,27,39,34,26,92,62,32,30.07,29.93,29.81,10,10,10,14,4,16,0.00,0,,193
2012-11-2,58,42,26,38,36,25,100,72,43,30.22,29.98,29.82,10,5,0,14,5,17,0.00,4,Fog,310
2012-11-3,61,41,21,34,26,20,96,62,27,30.26,30.19,30.12,10,10,10,9,2,12,0.00,1,,332
2012-11-4,52,40,27,41,32,25,92,73,54,30.25,30.16,30.09,10,10,10,13,3,16,T,3,Rain,268
2012-11-5,61,42,23,39,32,21,100,70,39,30.28,30.15,30.02,10,9,1,13,4,17,0.00,3,,277
2012-11-6,58,42,26,38,28,21,82,56,30,30.25,30.18,30.07,10,10,6,14,5,18,0.00,1,,343
2012-11-7,76,52,27,33,27,22,78,46,13,30.12,29.89,29.75,10,10,4,17,5,25,0.00,0,,196
2012-11-8,53,41,29,33,29,24,92,65,38,30.07,29.95,29.76,10,9,4,25,9,31,0.00,1,,39
2012-11-9,47,39,31,34,32,30,100,80,60,29.90,29.79,29.64,10,8,2,18,9,23,0.00,7,,102
2012-11-10,36,27,18,34,24,9,100,81,62,29.99,29.71,29.57,10,6,0,24,10,30,T,8,Fog-Snow,355
2012-11-11,26,14,2,12,7,-1,86,71,55,30.27,30.13,29.95,10,10,10,25,11,33,T,3,,263
2012-11-12,38,24,10,22,14,4,81,65,48,30.37,30.32,30.28,10,10,7,16,7,21,0.00,0,,258
2012-11-13,44,28,12,27,20,9,92,71,49,30.34,30.30,30.27,10,10,9,10,2,13,0.00,2,,245
2012-11-14,50,35,20,30,26,17,88,65,42,30.28,30.20,30.12,10,10,10,13,4,15,0.00,0,,244
2012-11-15,50,35,19,29,25,18,92,66,39,30.47,30.39,30.26,10,10,10,24,6,33,0.00,1,,145
2012-11-16,62,49,36,30,27,24,64,46,27,30.26,30.09,29.99,10,10,10,30,18,39,0.00,0,,191
2012-11-17,62,44,26,30,26,22,78,50,21,30.07,30.02,29.97,10,10,10,21,6,26,0.00,0,,267
2012-11-18,68,49,30,32,30,26,78,51,24,30.00,29.90,29.80,10,10,8,20,8,25,0.00,1,,223
2012-11-19,59,41,22,28,25,18,92,58,24,30.22,30.15,30.01,10,10,5,10,1,12,0.00,0,,174
2012-11-20,69,49,28,32,27,23,85,53,21,30.13,30.05,29.96,10,10,10,25,6,33,0.00,0,,247
2012-11-21,73,52,30,27,21,14,85,48,11,29.96,29.83,29.72,10,10,10,28,7,35,0.00,0,,263
2012-11-22,54,37,20,36,25,13,92,59,25,30.55,30.17,29.74,10,9,2,35,9,43,0.08,3,Rain,330
2012-11-23,45,26,7,19,14,4,84,58,31,30.63,30.45,30.11,10,10,10,12,4,15,0.00,0,,218
2012-11-24,58,44,29,27,22,18,64,44,23,30.07,29.97,29.85,10,10,10,15,5,18,0.00,3,,261
2012-11-25,39,34,28,35,31,27,100,82,64,30.25,30.01,29.93,10,4,1,15,5,18,0.37,8,Rain-Snow,63
2012-11-26,28,22,16,27,21,14,96,89,81,30.50,30.33,30.15,10,5,1,20,6,25,0.31,5,Snow,93
2012-11-27,32,20,7,22,14,4,96,83,69,30.38,30.29,30.23,10,10,8,17,3,21,0.00,0,,261
2012-11-28,40,24,7,27,19,7,91,73,54,30.32,30.17,30.07,10,10,10,15,5,18,0.00,0,,218
2012-11-29,48,30,12,34,24,12,92,71,49,30.10,30.02,29.95,10,10,8,17,3,24,0.00,0,,260
2012-11-30,55,39,23,35,28,22,92,66,39,30.05,29.90,29.75,10,10,10,22,10,28,0.00,0,,197